Regional Weather Roundup
Issued by NWS

Home | Current Version | Previous Version | Graphics & Text | Print | Product List | Glossary On
Versions: 1 2 3 4 5 6 7 8 9 10 11 12 13 14 15 16 17 18 19 20 21 22 23 24 25 26 27 28 29 30 31 32 33 34 35 36 37 38 39 40 41 42 43 44 45 46 47 48 49 50
874
ASUS43 KMPX 241610
RWRMN
WEATHER ROUNDUP FOR MINNESOTA
NATIONAL WEATHER SERVICE TWIN CITIES/CHANHASSEN MN
1100 AM CDT WED AUG 24 2016


NOTE: "FAIR" INDICATES FEW OR NO CLOUDS BELOW 12,000 FEET WITH NO
SIGNIFICANT WEATHER AND/OR OBSTRUCTIONS TO VISIBILITY. N/A MEANS
CURRENT SKY AND/OR WEATHER CONDITIONS ARE NOT AVAILABLE.

MNZ060>063-068>070-241700-
   Twin Cities Metro

CITY           SKY/WX    TMP DP  RH WIND       PRES   REMARKS
TWIN CITIES    CLOUDY    72  67  84 VRB7      29.89S
ST PAUL        CLOUDY    73  68  84 W7        29.89R
CRYSTAL        CLOUDY    73  66  78 VRB5      29.88R
BLAINE         CLOUDY    73  70  88 W8        29.89R
LAKEVILLE      CLOUDY    72  72 100 W6        29.90S
EDEN PRAIRIE   CLOUDY    74  68  81 W9        29.89R
LAKEVILLE      CLOUDY    72  72 100 W6        29.90S
SOUTH ST PAUL  CLOUDY    73  69  88 W5        29.89S
LAKE ELMO      CLOUDY    72  68  88 W5        29.90S
$$
MNZ001>005-007-008-013>017-022>024-027-028-241700-
   Northwest Minnesota

CITY           SKY/WX    TMP DP  RH WIND       PRES   REMARKS
BEMIDJI        SUNNY     72  54  52 W13       29.86R
HALLOCK        SUNNY     70  54  56 W13G18    29.81R
ROSEAU         SUNNY     68  57  68 SW12      29.80R
WARROAD        SUNNY     70  61  73 SW10      29.79R
THIEF RVR FALL SUNNY     69  54  58 W14       29.86R
CROOKSTON      SUNNY     70  55  60 W14       29.87R
FOSSTON        SUNNY     68  54  60 W9        29.88R
DETROIT LAKES  SUNNY     70  54  56 W14G20    29.92R
MOORHEAD       SUNNY     72  54  53 W17       29.92R
PARK RAPIDS    SUNNY     74  54  49 W15       29.89R
MAHNOMEN       FAIR      68  54  61 W13       29.89R
$$
MNZ006-009>011-018-025>026-241700-
   North Central Minnesota

CITY           SKY/WX    TMP DP  RH WIND       PRES   REMARKS
BAUDETTE       SUNNY     74  56  53 W13G18    29.78S
FLAG ISLAND    SUNNY     72  57  60 SW5       29.75S HAZE
INTL FALLS     MOSUNNY   74  62  66 W12G18    29.78R
WASKISH        SUNNY     72  57  60 W14       29.82R
BIG FORK       SUNNY     75  55  50 W5G16     29.83R
LONGVILLE      SUNNY     75  55  50 W8        29.87R
GRAND RAPIDS   SUNNY     75  59  57 W9        29.87R
CRANE LAKE     CLOUDY    70  66  88 W3        29.80R
ORR            PTSUNNY   72  63  73 CALM      29.78R
COOK           CLOUDY    70  64  83 W10       29.82R
WALKER         FAIR      72  55  55 W10       29.87R
$$
MNZ012-019>021-037-241700-
   Northeast Minnesota

CITY           SKY/WX    TMP DP  RH WIND       PRES   REMARKS
DULUTH         CLOUDY    71  65  81 W12       29.85R
ELY            PTSUNNY   73  64  73 SW6       29.81R
HIBBING        CLOUDY    71  66  84 SW3       29.83R
EVELETH        CLOUDY    71  67  87 SW7       29.84S
DULUTH HARBOR  PTSUNNY   75  68  78 W6        29.82R
TWO HARBORS    PTSUNNY   75  68  78 S8        29.81R
SILVER BAY     PTSUNNY   73  64  73 S5        29.80R
GRAND MARAIS     N/A     69  61  75 S6        29.78S
G MARAIS ARPRT SUNNY     72  61  68 CALM      29.84R
$$
MNZ029>031-032-039>041-046>048-054>057-064-241700-
   West Central Minnesota

CITY           SKY/WX    TMP DP  RH WIND       PRES   REMARKS
FERGUS FALLS   SUNNY     70  55  60 NW13G20   29.94S
MORRIS         SUNNY     73  55  53 NW13      29.94R
ALEXANDRIA     SUNNY     71  54  54 NW13      29.95R
ELBOW LAKE     FAIR      68  56  65 NW10      29.95R
WADENA         SUNNY     70  55  60 W8G17     29.91R
GLENWOOD       SUNNY     72  55  56 W10       29.95R
APPLETON       SUNNY     73  54  49 NW8       29.95R
BENSON         SUNNY     73  52  46 N12       29.95R
ORTONVILLE     SUNNY     73  54  49 NW9       29.96R
MADISON        SUNNY     72  54  53 NW10      29.97R
WILLMAR        FAIR      73  59  60 W10       29.96R
$$
MNZ033>034-036-042>043-049>051-058-059-241700-
   Central Minnesota

CITY           SKY/WX    TMP DP  RH WIND       PRES   REMARKS
ST CLOUD       SUNNY     77  60  55 NW13      29.90R
SAUK CENTRE    FAIR      73  55  53 W12G18    29.93S
PAYNESVILLE    SUNNY     74  59  59 W12       29.94R
AITKIN         SUNNY     79  57  47 W6        29.86R
PINE RIVER     SUNNY     73  57  56 W6        29.92R
BRAINERD       SUNNY     75  55  49 W12       29.89R
STAPLES        SUNNY     73  54  49 W9        29.91R
LONG PRAIRIE   FAIR      72  55  56 W8        29.93R
LITTLE FALLS   SUNNY     73  52  46 W12       29.91R
LITCHFIELD     SUNNY     77  61  57 NW9G16    29.93R
BUFFALO        SUNNY     76  62  62 W7        29.90S
MAPLE LAKE     SUNNY     77  65  67 W7        29.91R
HUTCHINSON     SUNNY     77  64  64 NW8       29.93R
$$
MNZ037-044-045-052-053-241700-
   East Central Minnesota

CITY           SKY/WX    TMP DP  RH WIND       PRES   REMARKS
PRINCETON      SUNNY     79  64  61 W9        29.88S
MORA           MOSUNNY   72  64  78 NW5       29.89R
CAMBRIDGE      PTSUNNY   73  64  73 W6        29.87S
RUSH CITY      RAIN      71  66  85 CALM      29.88S
MOOSE LAKE     CLOUDY    70  64  83 SW5       29.85R
HINCKLEY       CLOUDY    70  68  94 W8        29.88R
CLOQUET        CLOUDY    70  64  83 W7        29.86R
MCGREGOR       SUNNY     77  61  57 W9        29.87R
$$
MNZ071>073-080-081-089-090-097-098-241700-
   Southwest Minnesota

CITY           SKY/WX    TMP DP  RH WIND       PRES   REMARKS
MONTEVIDEO     SUNNY     73  61  64 N7        29.98R
GRANITE FALLS  MOSUNNY   73  59  62 NW8       29.98R
CANBY          SUNNY     73  55  53 W12       29.99R
MARSHALL       MOSUNNY   72  55  55 N8        29.98R
REDWOOD FALLS  CLOUDY    74  60  61 NW8       29.94R
OLIVIA         SUNNY     73  63  68 NW10G16   29.93S
PIPESTONE      MOSUNNY   70  55  60 NW8       30.00R
WINDOM         PTSUNNY   73  61  64 NW10      29.97R
JACKSON        CLOUDY    73  57  56 N6        29.98R
TRACY          PTSUNNY   72  59  63 NW10      29.99R
SLAYTON        MOSUNNY   70  59  68 NW10      30.00R
$$
MNZ065>067-074>077-082>085-091>093-241700-
   South Central Minnesota

CITY           SKY/WX    TMP DP  RH WIND       PRES   REMARKS
MANKATO        CLOUDY    70  66  88 NW8       29.92R
NEW ULM        SUNNY     73  66  78 NW7       29.93R
ST JAMES       MOSUNNY   68  61  77 NW7       29.95R
FAIRMONT       CLOUDY    70  66  87 NW10      29.96
GLENCOE        SUNNY     76  67  73 NW9       29.91S
FARIBAULT      CLOUDY    72  70  94 W7        29.91S
OWATONNA       PTSUNNY   75  68  78 NW9       29.91R
WASECA         CLOUDY    72  68  88 W9        29.94R
ALBERT LEA     CLOUDY    72  70  94 NW5       29.92R FOG
$$
MNZ078>079-086>088-094>096-241700-
   Southeast Minnesota

CITY           SKY/WX    TMP DP  RH WIND       PRES   REMARKS
ROCHESTER      CLOUDY    77  72  84 NW7       29.91S
RED WING       CLOUDY    73  68  83 NW8       29.87R
STANTON        PTSUNNY   75  68  78 NW9       29.88S
DODGE CENTER   PTSUNNY   75  70  83 N10       29.91R
WINONA         CLOUDY    73  70  88 SW3       29.88R
AUSTIN         CLOUDY    73  70  88 NW6       29.91R
PRESTON        HVY RAIN  72  69  92 S6        29.91R
$$
ABBREVIATIONS USED IN REMARKS
   TC - TEMPERATURES IN CELSIUS
  WCI - WIND CHILL INDEX
   HX - HEAT INDEX
  VSB - VISIBILITY
$$




USA.gov is the U.S. government's official web portal to all federal, state and local government web resources and services.